When you browse on this site, cookies collect data to enhance your experience and personalize the content and advertising you see.
Visit our Privacy Policy to learn more. By continuing to use the site, you agree to this use of cookies and data.
  • In Lithuania
  • List of Countries
  • For 7 days
  • Water Temperature
  • Weather Map
  • Weather Widgets
  • user-avatar
    Login

    Hourly Weather Hobart

    Today, 21 January, Tuesday

    Time Temperature Precipitation Wind Pressure Humidity
    00:00 +12°C° 0 mm 2 mps 741 mmHg 92%
    01:00 +12°C° 0 mm 2 mps 741 mmHg 93%
    02:00 +12°C° 0 mm 2 mps 740 mmHg 93%
    03:00 +12°C° 0 mm 2 mps 740 mmHg 93%
    04:00 +12°C° 0 mm 2 mps 740 mmHg 93%
    05:00 +13°C° 0 mm 2 mps 740 mmHg 89%
    06:00 +14°C° 0 mm 2 mps 741 mmHg 85%
    07:00 +14°C° 0 mm 2 mps 741 mmHg 81%
    08:00 +16°C° 0 mm 3 mps 741 mmHg 71%
    09:00 +18°C° 0 mm 3 mps 741 mmHg 61%
    10:00 +19°C° 0 mm 3 mps 741 mmHg 55%
    11:00 +19°C° 0 mm 3 mps 741 mmHg 53%
    12:00 +20°C° 0 mm 4 mps 740 mmHg 51%
    13:00 +20°C° 0 mm 4 mps 740 mmHg 50%
    14:00 +19°C° 0 mm 4 mps 740 mmHg 53%
    15:00 +19°C° 0 mm 4 mps 740 mmHg 57%
    16:00 +18°C° 0 mm 4 mps 740 mmHg 60%
    17:00 +17°C° 0 mm 3 mps 740 mmHg 65%
    18:00 +14°C° 0 mm 3 mps 740 mmHg 70%
    19:00 +14°C° 0 mm 2 mps 741 mmHg 75%
    20:00 +13°C° 0 mm 2 mps 741 mmHg 78%
    21:00 +13°C° 0 mm 1 mps 741 mmHg 81%
    22:00 +12°C° 0 mm 1 mps 741 mmHg 83%
    23:00 +12°C° 0 mm 1 mps 741 mmHg 84%

    Tomorrow, 22 January, Wednesday

    Time Temperature Precipitation Wind Pressure Humidity
    00:00 +12°C° 0 mm 1 mps 741 mmHg 85%
    01:00 +12°C° 0 mm 1 mps 741 mmHg 86%
    02:00 +10°C° 0 mm 2 mps 740 mmHg 89%
    03:00 +10°C° 0 mm 2 mps 739 mmHg 93%
    04:00 +9°C° 0 mm 2 mps 739 mmHg 96%
    05:00 +10°C° 0 mm 2 mps 739 mmHg 90%
    06:00 +12°C° 0 mm 3 mps 739 mmHg 83%
    07:00 +13°C° 0 mm 3 mps 738 mmHg 77%
    08:00 +17°C° 0 mm 3 mps 738 mmHg 63%
    09:00 +20°C° 0 mm 3 mps 737 mmHg 49%
    10:00 +23°C° 0 mm 4 mps 737 mmHg 35%
    11:00 +26°C° 0 mm 4 mps 736 mmHg 33%
    12:00 +27°C° 0 mm 5 mps 736 mmHg 31%
    13:00 +28°C° 0 mm 6 mps 736 mmHg 29%
    14:00 +28°C° 0 mm 5 mps 735 mmHg 32%
    15:00 +27°C° 0 mm 5 mps 734 mmHg 34%
    16:00 +27°C° 0 mm 5 mps 734 mmHg 36%
    17:00 +26°C° 0 mm 4 mps 734 mmHg 39%
    18:00 +25°C° 0 mm 4 mps 734 mmHg 41%
    19:00 +25°C° 0 mm 4 mps 734 mmHg 43%
    20:00 +22°C° 0.2 mm 3 mps 733 mmHg 53%
    21:00 +20°C° 0.2 mm 3 mps 733 mmHg 62%
    22:00 +19°C° 0.2 mm 2 mps 733 mmHg 72%
    23:00 +18°C° 1.2 mm 2 mps 733 mmHg 80%

    Day after tomorrow, 23 January, Thursday

    Time Temperature Precipitation Wind Pressure Humidity
    00:00 +17°C° 1.2 mm 2 mps 732 mmHg 88%
    01:00 +16°C° 1.2 mm 2 mps 732 mmHg 96%
    02:00 +15°C° 1.5 mm 2 mps 731 mmHg 95%
    03:00 +14°C° 1.5 mm 2 mps 730 mmHg 95%
    04:00 +13°C° 1.5 mm 2 mps 730 mmHg 94%
    05:00 +13°C° 1 mm 2 mps 730 mmHg 93%
    06:00 +13°C° 1 mm 2 mps 730 mmHg 93%
    07:00 +13°C° 1 mm 2 mps 730 mmHg 92%
    08:00 +14°C° 0.1 mm 2 mps 729 mmHg 81%
    09:00 +16°C° 0.1 mm 2 mps 729 mmHg 70%
    10:00 +18°C° 0.1 mm 3 mps 729 mmHg 59%
    11:00 +17°C° 0.5 mm 3 mps 729 mmHg 64%
    12:00 +17°C° 0.5 mm 3 mps 729 mmHg 68%
    13:00 +15°C° 0.5 mm 4 mps 729 mmHg 72%
    14:00 +15°C° 0.3 mm 4 mps 729 mmHg 71%
    15:00 +15°C° 0.3 mm 4 mps 729 mmHg 70%
    16:00 +14°C° 0.3 mm 5 mps 729 mmHg 69%
    17:00 +13°C° 0.4 mm 5 mps 729 mmHg 73%
    18:00 +11°C° 0.4 mm 6 mps 730 mmHg 76%
    19:00 +11°C° 0.4 mm 6 mps 731 mmHg 79%
    20:00 +10°C° 0 mm 5 mps 732 mmHg 79%
    21:00 +9°C° 0 mm 5 mps 733 mmHg 79%
    22:00 +9°C° 0 mm 5 mps 734 mmHg 79%
    23:00 +9°C° 0 mm 5 mps 734 mmHg 78%

    24 January, Friday

    Time Temperature Precipitation Wind Pressure Humidity
    00:00 +9°C° 0 mm 5 mps 733 mmHg 77%
    01:00 +9°C° 0 mm 5 mps 733 mmHg 76%
    02:00 +9°C° 0 mm 5 mps 733 mmHg 75%
    03:00 +10°C° 0 mm 5 mps 733 mmHg 74%
    04:00 +10°C° 0 mm 5 mps 733 mmHg 74%
    05:00 +12°C° 0.1 mm 5 mps 733 mmHg 73%
    06:00 +12°C° 0.1 mm 5 mps 734 mmHg 73%
    07:00 +13°C° 0.1 mm 5 mps 734 mmHg 72%
    08:00 +13°C° 0.1 mm 6 mps 734 mmHg 69%
    09:00 +14°C° 0.1 mm 6 mps 735 mmHg 65%
    10:00 +14°C° 0.1 mm 6 mps 735 mmHg 62%
    11:00 +16°C° 0 mm 6 mps 735 mmHg 57%
    12:00 +17°C° 0 mm 6 mps 735 mmHg 52%
    13:00 +18°C° 0 mm 7 mps 736 mmHg 47%
    14:00 +17°C° 0 mm 6 mps 736 mmHg 49%
    15:00 +17°C° 0 mm 6 mps 736 mmHg 51%
    16:00 +16°C° 0 mm 6 mps 737 mmHg 53%
    17:00 +16°C° 0 mm 5 mps 737 mmHg 56%
    18:00 +15°C° 0 mm 4 mps 738 mmHg 59%
    19:00 +16°C° 0 mm 3 mps 739 mmHg 62%
    20:00 +14°C° 0 mm 3 mps 739 mmHg 66%
    21:00 +13°C° 0 mm 3 mps 739 mmHg 69%
    22:00 +12°C° 0 mm 3 mps 740 mmHg 73%
    23:00 +12°C° 0 mm 3 mps 740 mmHg 74%

    25 January, Saturday

    Time Temperature Precipitation Wind Pressure Humidity
    00:00 +12°C° 0 mm 3 mps 740 mmHg 75%
    01:00 +12°C° 0 mm 3 mps 740 mmHg 76%
    02:00 +12°C° 0 mm 3 mps 740 mmHg 77%
    03:00 +13°C° 0 mm 2 mps 740 mmHg 77%
    04:00 +13°C° 0 mm 2 mps 740 mmHg 78%
    05:00 +13°C° 0 mm 3 mps 741 mmHg 75%
    06:00 +13°C° 0 mm 3 mps 741 mmHg 71%
    07:00 +14°C° 0 mm 3 mps 742 mmHg 68%
    08:00 +16°C° 0 mm 3 mps 742 mmHg 66%
    09:00 +16°C° 0 mm 3 mps 742 mmHg 64%
    10:00 +17°C° 0 mm 3 mps 743 mmHg 62%
    11:00 +18°C° 0 mm 3 mps 743 mmHg 59%
    12:00 +19°C° 0 mm 2 mps 743 mmHg 55%
    13:00 +20°C° 0 mm 2 mps 742 mmHg 51%
    14:00 +21°C° 0 mm 2 mps 742 mmHg 51%
    15:00 +21°C° 0 mm 3 mps 742 mmHg 50%
    16:00 +22°C° 0 mm 3 mps 742 mmHg 50%
    17:00 +21°C° 0 mm 2 mps 742 mmHg 54%
    18:00 +20°C° 0 mm 2 mps 742 mmHg 58%
    19:00 +20°C° 0 mm 1 mps 742 mmHg 63%
    20:00 +18°C° 0 mm 2 mps 742 mmHg 68%
    21:00 +16°C° 0 mm 2 mps 742 mmHg 73%
    22:00 +15°C° 0 mm 2 mps 742 mmHg 79%
    23:00 +15°C° 0 mm 2 mps 742 mmHg 79%

    26 January, Sunday

    Time Temperature Precipitation Wind Pressure Humidity
    00:00 +15°C° 0 mm 2 mps 742 mmHg 80%
    01:00 +14°C° 0 mm 2 mps 742 mmHg 81%
    02:00 +14°C° 0 mm 2 mps 742 mmHg 83%
    03:00 +14°C° 0 mm 2 mps 742 mmHg 86%
    04:00 +14°C° 0 mm 2 mps 741 mmHg 88%
    05:00 +14°C° 0 mm 3 mps 742 mmHg 81%
    06:00 +16°C° 0 mm 3 mps 742 mmHg 74%
    07:00 +18°C° 0 mm 4 mps 742 mmHg 67%
    08:00 +19°C° 0 mm 4 mps 742 mmHg 62%
    09:00 +21°C° 0 mm 4 mps 742 mmHg 56%
    10:00 +23°C° 0 mm 4 mps 742 mmHg 51%
    11:00 +23°C° 0 mm 4 mps 742 mmHg 51%
    12:00 +23°C° 0 mm 4 mps 741 mmHg 51%
    13:00 +23°C° 0 mm 5 mps 741 mmHg 50%
    14:00 +23°C° 0 mm 4 mps 741 mmHg 51%
    15:00 +22°C° 0 mm 4 mps 741 mmHg 52%
    16:00 +22°C° 0 mm 4 mps 742 mmHg 53%
    17:00 +21°C° 0 mm 3 mps 742 mmHg 54%
    18:00 +20°C° 0 mm 3 mps 742 mmHg 56%
    19:00 +19°C° 0 mm 2 mps 742 mmHg 58%
    20:00 +18°C° 0 mm 2 mps 742 mmHg 61%
    21:00 +17°C° 0 mm 2 mps 743 mmHg 65%
    22:00 +16°C° 0 mm 2 mps 743 mmHg 68%
    23:00 +15°C° 0 mm 2 mps 742 mmHg 72%
    Show more